Terug naar catalogus

CZ-3C DEB

ActiefGTO
NORAD 40855·DEBRIS·🇨🇳 China

Gelanceerd Feb 24, 2012 vanaf Xichang Satellite Launch Center

Loading…

TLE

VerouderendSource: Space-Track

Epoch: Sep 14, 2026, 14:22 UTC

1 40855U 12008V   26257.59928111 -.00000019  00000-0  28631-2 0  9994
2 40855  22.6415 304.2087 7063685 270.8333  18.4801  2.32142631100422

Volg CZ-3C DEB in realtime met AllMySat

Download on the App Store